EW1786 Weather Reports


Display with metric or nautical units.
time (UTC)temp
F
wind
direction
speed
MPH
gust
MPH
rain 1hr
in
rain 24hr
in
rain mn
in
humidity
%
barometer
mb
20260906083018 80 337 0.0 4.0 0.00 0.00 0.00 74 1019.2
20260906082101 80 32 1.0 4.0 0.00 0.00 0.00 74 1019.2
20260906081044 79 345 1.0 4.0 0.00 0.00 0.00 74 1019.0
20260906080039 79 0.0 2.0 0.00 0.00 0.00 73 1019.0
20260906075040 79 29 2.0 4.0 0.00 0.00 0.00 71 1019.0
20260906074023 78 74 0.0 4.0 0.00 0.00 0.00 71 1018.9
20260906073018 78 0.0 0.0 0.00 0.00 0.00 69 1018.9
20260906072059 78 0.0 0.0 0.00 0.00 0.00 69 1018.8
20260906071018 76 0.0 0.0 0.00 0.00 0.00 68 1018.8
20260906070020 74 0.0 0.0 0.00 0.00 0.00 67 1018.7
20260906065018 74 0.0 0.0 0.00 0.00 0.00 68 1018.6
20260906064020 72 0.0 0.0 0.00 0.00 0.00 70 1018.5
20260906063018 72 0.0 0.0 0.00 0.00 0.00 70 1018.4
20260906062019 71 0.0 0.0 0.00 0.00 0.00 71 1018.4
20260906061039 70 0.0 0.0 0.00 0.00 0.00 73 1018.4
20260906060018 70 0.0 0.0 0.00 0.00 0.00 72 1018.3
20260906055017 69 0.0 0.0 0.00 0.00 0.00 74 1018.2
20260906054040 69 0.0 0.0 0.00 0.00 0.00 75 1018.1
20260906053018 68 0.0 0.0 0.00 0.00 0.00 75 1018.0
20260906052534 0 0.0 0.0 0.00 0.00 0.00
20260906052017 0 0.0 0.0 0.00 0.00 0.00
20260906051019 0 0.0 0.0 0.00 0.00 0.00
20260906050547 0 0.0 0.0 0.00 0.00 0.00
20260906050059 0 0.0 0.0 0.00 0.00 0.00
20260906045538 0 0.0 0.0 0.00 0.00 0.00
20260906044518 0 0.0 0.0 0.00 0.00 0.00
20260906044034 0 0.0 0.0 0.00 0.00 0.00
20260906043534 0 0.0 0.0 0.00 0.00 0.00
20260906043018 0 0.0 0.0 0.00 0.00 0.00
20260906042018 0 0.0 0.0 0.00 0.00 0.00
20260906041557 0 0.0 0.0 0.00 0.00 0.00
20260906041038 0 0.0 0.0 0.00 0.00 0.00
20260906040517 0 0.0 0.0 0.00 0.00 0.00
20260906035539 0 0.0 0.0 0.00 0.00 0.00
20260906035034 0 0.0 0.0 0.00 0.00 0.00
20260906034533 0 0.0 0.0 0.00 0.00 0.00
20260906034021 0 0.0 0.0 0.00 0.00 0.00
20260906033017 0 0.0 0.0 0.00 0.00 0.00
20260906032528 0 0.0 0.0 0.00 0.00 0.00 76
20260906032005 0 0.0 0.0 0.00 0.00 0.00 76
20260906031520 71 0.0 0.0 0.00 0.00 0.00 77 1017.1
20260906030517 71 0.0 0.0 0.00 0.00 0.00 75 1017.2
20260906025522 70 0.0 0.0 0.00 0.00 0.00 72 1017.1
20260906024517 69 0.0 0.0 0.00 0.00 0.00 70 1017.1
20260906023517 70 0.0 0.0 0.00 0.00 0.00 69 1016.9
20260906022517 70 0.0 0.0 0.00 0.00 0.00 67 1016.7
20260906021517 70 241 1.0 2.0 0.00 0.00 0.00 68 1016.6
20260906020524 70 253 1.0 2.0 0.00 0.00 0.00 68 1016.5
20260906015518 70 0.0 0.0 0.00 0.00 0.00 68 1016.4
20260906014517 70 0.0 1.0 0.00 0.00 0.00 70 1016.4
20260906013517 70 259 0.0 2.0 0.00 0.00 0.00 70 1016.4
20260906012517 71 249 0.0 1.0 0.00 0.00 0.00 69 1016.3
20260906011517 72 0.0 0.0 0.00 0.00 0.00 67 1016.3
20260906010517 72 231 0.0 2.0 0.00 0.00 0.00 66 1016.2
20260906005518 74 238 0.0 2.0 0.00 0.00 0.00 64 1016.2
20260906004518 74 230 0.0 2.0 0.00 0.00 0.00 64 1016.2
20260906003517 74 0.0 0.0 0.00 0.00 0.00 63 1016.2
20260906002517 75 0.0 0.0 0.00 0.00 0.00 64 1016.2
20260906001519 75 0.0 0.0 0.00 0.00 0.00 64 1016.2
20260906000540 74 0.0 0.0 0.00 0.00 0.00 63 1016.2
20260905235520 74 0.0 0.0 0.00 0.00 0.00 64 1016.2
20260905234519 74 0.0 0.0 0.00 0.00 0.00 62 1016.0
20260905233539 75 0.0 0.0 0.00 0.00 0.00 63 1015.9
20260905232519 74 0.0 0.0 0.00 0.00 0.00 63 1015.8
20260905231519 74 0.0 0.0 0.00 0.00 0.00 62 1015.8
20260905230519 74 0.0 0.0 0.00 0.00 0.00 63 1015.8
20260905225519 73 136 0.0 1.0 0.00 0.00 0.00 64 1015.7
20260905224519 74 0.0 0.0 0.00 0.00 0.00 64 1015.7
20260905223519 74 0.0 0.0 0.00 0.00 0.00 63 1015.6
20260905222519 75 0.0 0.0 0.00 0.00 0.00 61 1015.6
20260905221520 76 0.0 1.0 0.00 0.00 0.00 59 1015.5
20260905220559 76 259 0.0 5.0 0.00 0.00 0.00 59 1015.4
20260905215519 76 39 1.0 3.0 0.00 0.00 0.00 59 1015.3
20260905214519 77 0.0 0.0 0.00 0.00 0.00 57 1015.2
20260905213519 77 0.0 0.0 0.00 0.00 0.00 57 1015.1
20260905212539 77 233 0.0 2.0 0.00 0.00 0.00 57 1014.9
20260905211520 76 251 0.0 2.0 0.00 0.00 0.00 56 1014.9
20260905210519 76 0.0 0.0 0.00 0.00 0.00 57 1014.8
20260905205519 77 0.0 1.0 0.00 0.00 0.00 56 1014.8
20260905204524 77 252 0.0 1.0 0.00 0.00 0.00 55 1014.7
20260905203600 77 259 0.0 1.0 0.00 0.00 0.00 56 1014.7
20260905202518 78 256 0.0 1.0 0.00 0.00 0.00 56 1014.6
20260905201519 78 240 0.0 2.0 0.00 0.00 0.00 56 1014.6
20260905200519 79 229 1.0 1.0 0.00 0.00 0.00 55 1014.7
20260905195539 80 269 0.0 2.0 0.00 0.00 0.00 54 1014.6
20260905194519 82 0.0 0.0 0.00 0.00 0.00 50 1014.5
20260905193518 82 0.0 0.0 0.00 0.00 0.00 47 1014.4
20260905192518 83 0.0 0.0 0.00 0.00 0.00 45 1014.4
20260905191518 82 0.0 0.0 0.00 0.00 0.00 48 1014.3
20260905190540 83 0.0 0.0 0.00 0.00 0.00 48 1014.2
20260905185518 84 0.0 2.0 0.00 0.00 0.00 49 1014.1
20260905184539 84 219 1.0 2.0 0.00 0.00 0.00 46 1013.9
20260905183602 85 0.0 0.0 0.00 0.00 0.00 50 1013.8
20260905182521 85 0.0 0.0 0.00 0.00 0.00 46 1013.6
20260905181518 86 0.0 0.0 0.00 0.00 0.00 48 1013.5
20260905180519 87 0.0 0.0 0.00 0.00 0.00 47 1013.5
20260905175538 88 0.0 0.0 0.00 0.00 0.00 46 1013.4
20260905174518 89 0.0 0.0 0.00 0.00 0.00 45 1013.3
20260905173519 90 0.0 0.0 0.00 0.00 0.00 44 1013.3
20260905172518 91 0.0 0.0 0.00 0.00 0.00 43
20260905171540 92 0.0 0.0 0.00 0.00 0.00 41
20260905170518 94 213 0.0 1.0 0.00 0.00 0.00 38
20260905165518 96 266 0.0 2.0 0.00 0.00 0.00 33
20260905164518 96 307 0.0 3.0 0.00 0.00 0.00 31
20260905163518 96 347 1.0 3.0 0.00 0.00 0.00 31
20260905162521 95 46 0.0 2.0 0.00 0.00 0.00 31
20260905161518 95 358 1.0 4.0 0.00 0.00 0.00 31
20260905160519 96 359 1.0 4.0 0.00 0.00 0.00 32
20260905155518 95 78 1.0 4.0 0.00 0.00 0.00 31
20260905154519 95 341 1.0 5.0 0.00 0.00 0.00 31 1012.6
20260905153519 95 90 3.0 6.0 0.00 0.00 0.00 30 1012.5
20260905152519 95 57 2.0 6.0 0.00 0.00 0.00 30 1012.5
20260905151518 95 87 4.0 7.0 0.00 0.00 0.00 30 1012.6
20260905150518 96 44 2.0 6.0 0.00 0.00 0.00 31 1012.6
20260905145538 95 349 1.0 8.0 0.00 0.00 0.00 30 1012.6
20260905144541 96 355 1.0 4.0 0.00 0.00 0.00 30 1012.7
20260905143520 95 8 3.0 6.0 0.00 0.00 0.00 30 1012.8
20260905142519 96 46 2.0 5.0 0.00 0.00 0.00 28 1012.9
20260905141518 96 0.0 3.0 0.00 0.00 0.00 29 1012.9
20260905140518 96 212 1.0 3.0 0.00 0.00 0.00 29 1012.9
20260905135519 95 230 1.0 3.0 0.00 0.00 0.00 29 1013.1
20260905134518 94 8 2.0 5.0 0.00 0.00 0.00 29 1013.2
20260905133521 94 351 2.0 5.0 0.00 0.00 0.00 29 1013.3
20260905132519 94 1 3.0 6.0 0.00 0.00 0.00 30 1013.4
20260905131518 94 337 1.0 5.0 0.00 0.00 0.00 30 1013.5
20260905130518 93 320 1.0 5.0 0.00 0.00 0.00 31 1013.6
20260905125518 93 342 2.0 6.0 0.00 0.00 0.00 30 1013.7
20260905124544 93 354 2.0 7.0 0.00 0.00 0.00 30 1013.8
20260905123518 93 343 2.0 5.0 0.00 0.00 0.00 31 1013.9
20260905122518 92 356 2.0 7.0 0.00 0.00 0.00 30 1014.0
20260905121518 92 350 3.0 7.0 0.00 0.00 0.00 30 1014.1
20260905120518 92 348 2.0 6.0 0.00 0.00 0.00 30 1014.1
20260905115539 92 0 3.0 9.0 0.00 0.00 0.00 30 1014.2
20260905114520 92 2 3.0 7.0 0.00 0.00 0.00 30 1014.2
20260905113520 92 20 3.0 7.0 0.00 0.00 0.00 30 1014.2
20260905112518 91 12 2.0 4.0 0.00 0.00 0.00 31 1014.2
20260905111518 91 358 3.0 7.0 0.00 0.00 0.00 31 1014.3
20260905110705 91 353 3.0 7.0 0.00 0.00 0.00 31 1014.3
20260905105519 91 347 3.0 7.0 0.00 0.00 0.00 32 1014.3
20260905104518 90 14 3.0 8.0 0.00 0.00 0.00 32 1014.4
20260905103559 91 0.0 4.0 0.00 0.00 0.00 32 1014.4
20260905102538 91 216 0.0 2.0 0.00 0.00 0.00 31 1014.5
20260905101518 89 182 1.0 3.0 0.00 0.00 0.00 34 1014.5
20260905100518 89 22 1.0 5.0 0.00 0.00 0.00 34 1014.6
20260905095518 88 313 1.0 8.0 0.00 0.00 0.00 34 1014.7
20260905094517 88 345 2.0 7.0 0.00 0.00 0.00 35 1014.8
20260905093538 88 314 2.0 7.0 0.00 0.00 0.00 35 1014.9
20260905092518 87 340 2.0 5.0 0.00 0.00 0.00 35 1014.9
20260905091518 87 0.0 5.0 0.00 0.00 0.00 35 1014.9
20260905090518 87 344 2.0 6.0 0.00 0.00 0.00 36 1014.9
20260905085518 86 333 2.0 5.0 0.00 0.00 0.00 36 1014.8
20260905084619 86 314 1.0 6.0 0.00 0.00 0.00 37 1014.7